Regional Weather Roundup
Issued by NWS

Home | Current Version | Previous Version | Graphics & Text | Print | Product List | Glossary On
Versions: 1 2 3 4 5 6 7 8 9 10 11 12 13 14 15 16 17 18 19 20 21 22 23 24 25 26 27 28 29 30 31 32 33 34 35 36 37 38 39 40 41 42 43 44 45 46 47 48 49 50
000
ASUS43 KLOT 230603
RWRIL

ILLINOIS REGIONAL WEATHER ROUNDUP
NATIONAL WEATHER SERVICE CHICAGO/ROMEOVILLE IL
100 AM CDT WED MAY 23 2018

NOTE: "FAIR" INDICATES FEW OR NO CLOUDS BELOW 12,000 FEET WITH NO
SIGNIFICANT WEATHER AND/OR OBSTRUCTIONS TO VISIBILITY.

* THESE STATIONS ARE NOT UNDER NWS QUALITY CONTROL. THEY ALSO MAY NOT
  REPORT WEATHER SUCH AS PRECIPITATION OR FOG.

ILZ001-002-007-009-015-016-024-230700-
NORTHWEST ILLINOIS

CITY           SKY/WX    TMP DP  RH WIND       PRES   REMARKS
MOLINE         FAIR      61  59  93 CALM      30.09R
6HR MIN TEMP:  58; 6HR MAX TEMP:  75;

STERLING*      FAIR      59  59 100 CALM      30.11S
SAVANNA*       FAIR      60  58  96 CALM      30.11S
$$

ILZ003-004-008-010-011-017-018-230700-
NORTH CENTRAL ILLINOIS

CITY           SKY/WX    TMP DP  RH WIND       PRES   REMARKS
ROCKFORD       FAIR      55  54  96 CALM      30.12R
6HR MIN TEMP:  55; 6HR MAX TEMP:  69;

FREEPORT*      FAIR      56  55  99 CALM      30.13R
ROCHELLE*      FAIR      56  56 100 CALM      30.12S FOG
DE KALB*       FAIR      55  55  99 S5        30.12R FOG
PERU*          FAIR      64  61  91 E6        30.11S
$$

ILZ005-006-012>014-019>023-230700-
NORTHEAST ILLINOIS

CITY           SKY/WX    TMP DP  RH WIND       PRES   REMARKS
CHICAGO-OHARE  FAIR      54  51  90 S3        30.10R
6HR MIN TEMP:  54; 6HR MAX TEMP:  65;

CHICAGO-MIDWAY FAIR      54  51  90 CALM      30.10S
6HR MIN TEMP:  54; 6HR MAX TEMP:  60;

AURORA         FAIR      55  55 100 CALM      30.11R FOG
6HR MIN TEMP:  55; 6HR MAX TEMP:  69;

LANSING*       FAIR      50  50 100 CALM      30.11S
JOLIET*        FAIR      54  54 100 CALM      30.11S FOG
WAUKEGAN       FAIR      48  48 100 CALM      30.09S FOG
6HR MIN TEMP:  47; 6HR MAX TEMP:  55;

DUPAGE AIRPORT FAIR      53  53 100 CALM      30.10S FOG
6HR MIN TEMP:  52; 6HR MAX TEMP:  67;

KANKAKEE*      FAIR      55  54  97 CALM      30.11S
WHEELING       FAIR      54  52  93 S3        30.11S
6HR MIN TEMP:  53; 6HR MAX TEMP:  64;

MORRIS*        FAIR      57  55  92 CALM      30.10S FOG
ROMEOVILLE*    FAIR      53  52  97 CALM      30.11S FOG
NORTHERLY ISL    N/A     52  49  89 W2          N/A
$$

LMZ740>746-230700-
SOUTHERN LAKE MICHIGAN

STATION/POSITION SKY/WX   TEMP    WIND        PRES    VSBY  WAVE
                          AIR SEA DIR/SP/G                  HT/PER
                          (F)     (DEG/KT/KT) (MB)    (MI)  (FT/S)
SOUTHERN BUOY              40 39  190/  2/  4 1019.9R         0
WILMETTE HARBOR            49 48  160/  4/  4   N/A           0
HARRISON CRIB              52     200/ 10/ 11   N/A
BURNHAM HARBOR             52     240/  3/  5   N/A
CALUMET HARBOR             51     240/  2/  2 1019.0F
BURNS HARBOR               52        CALM     1020.0R
MICHIGAN CITY              50     240/  3/  3   N/A
MICHIGAN CITY 6N           50 54   CALM  /  2   N/A           1
ST. JOSEPH                 50 53  310/  4/  4 1020.0R         1
$$

ILZ025>027-034>036-040-047-049-050-058-095>099-230700-
WEST-CENTRAL ILLINOIS

CITY           SKY/WX    TMP DP  RH WIND       PRES   REMARKS
QUINCY         CLEAR     69  61  75 E6        30.07S
MACOMB*        CLEAR     62  60  93 E5        30.10S
JACKSONVILLE*  CLEAR     64  60  88 E5        30.08S
PITTSFIELD*    PTCLDY    67  63  88 E3        30.09R
$$

ILZ028>032-037-038-041>044-048-051>054-059>061-230700-
CENTRAL ILLINOIS

CITY           SKY/WX    TMP DP  RH WIND       PRES   REMARKS
PONTIAC        FAIR      58  58  99 E3        30.12S FOG
BLOOMINGTON    FAIR      60  56  86 E8        30.12R
DECATUR        FAIR      61  56  83 NE7       30.09R
PEORIA         FAIR      63  60  90 CALM      30.09S
6HR MIN TEMP:  62; 6HR MAX TEMP:  76;

LACON*         FAIR      60  60 100 CALM      30.09S
LINCOLN*       FAIR      63  59  86 CALM      30.09S
SPRINGFIELD    FAIR      64  60  87 NE3       30.08S
6HR MIN TEMP:  64; 6HR MAX TEMP:  81;

TAYLORVILLE    FAIR      67  59  74 NE7       30.08S
6HR MIN TEMP:  65; 6HR MAX TEMP:  79;

$$

ILZ033-039-045-046-055>057-062-063-230700-
EAST-CENTRAL ILLINOIS

CITY           SKY/WX    TMP DP  RH WIND       PRES   REMARKS
CHAMPAIGN      FAIR      63  58  83 NE6       30.10R
DANVILLE*      FAIR      59  58  97 NE3       30.08R
RANTOUL*       FAIR      63  59  87 NE6       30.11R
MATTOON        LGT RAIN  65  60  84 NE6       30.08R
PARIS*         FAIR      64  59  86 NE3       30.10R
$$

ILZ079-100>102-230700-
SOUTHWEST ILLINOIS

CITY           SKY/WX    TMP DP  RH WIND       PRES   REMARKS
ALTON          PTCLDY    68  63  83 NE5       30.07S
BELLEVILLE     PTCLDY    70  64  81 NE5       30.05S
CAHOKIA*       CLOUDY    69  65  86 CALM      30.05S
SPARTA*        CLOUDY    70  68  93 CALM      30.07R
$$

ILZ064>066-069>071-074>076-080>082-084>086-088>090-092>094-230700-
SOUTH-CENTRAL ILLINOIS

CITY           SKY/WX    TMP DP  RH WIND       PRES   REMARKS
CARBONDALE     FAIR      66  65  96 CALM      30.05S
6HR MIN TEMP:  66; 6HR MAX TEMP:  82;

CAIRO*         FAIR      71  70  98 CALM      30.05R
EFFINGHAM*     FAIR      68  58  70 CALM      30.09R
MARION         FAIR      65  64  97 CALM      30.06S
MT. VERNON       N/A     64  63  96 NE3       30.06S
CENTRALIA*     PTCLDY    69  64  83 N3        30.06R
SALEM*         FAIR      72  60  65 NE6       30.07R
METROPOLIS*    FAIR      69  68  96 CALM      30.05S FOG
$$

ILZ067-068-072-073-078-083-087-091-230700-
SOUTHEAST ILLINOIS

CITY           SKY/WX    TMP DP  RH WIND       PRES   REMARKS
LAWRENCEVILLE  FAIR      72  60  66 N8        30.05S
FLORA*         FAIR      70  61  72 N5        30.06S
FAIRFIELD*     FAIR      71  61  70 N5        30.05R
HARRISBURG*    FAIR      68  67  98 CALM      30.05R
ROBINSON*      FAIR      65  61  85 N7        30.08R
CARMI*         FAIR      68  65  89 CALM      30.04R
$$

ABBREVIATIONS USED IN REMARKS
   TC - TEMPERATURE IN CELSIUS
  WCI - WIND CHILL INDEX
   HX - HEAT INDEX
  VSB - VISIBILITY
$$




USA.gov is the U.S. government's official web portal to all federal, state and local government web resources and services.